Time,TemperatureF,DewpointF,PressureIn,WindDirection,WindDirectionDegrees,WindSpeedMPH,WindSpeedGustMPH,Humidity,HourlyPrecipIn,Conditions,Clouds,dailyrainin,SoftwareType,DateUTC
2013-01-23 00:00:00,2.8,-5.9,30.10,West,270,2.5,2.5,66,0.00,,,0.00,WUHU21623XXSP,2013-01-23 05:00:00,
2013-01-23 00:01:00,2.8,-5.9,30.10,West,270,2.5,2.5,66,0.00,,,0.00,WUHU21623XXSP,2013-01-23 05:01:00,
2013-01-23 00:03:00,2.8,-5.9,30.10,West,270,2.5,2.5,66,0.00,,,0.00,WUHU21623XXSP,2013-01-23 05:03:00,
2013-01-23 00:14:00,2.6,-5.8,30.09,WNW,293,0.0,0.0,67,0.00,,,0.00,WUHU21623XXSP,2013-01-23 05:14:00,
2013-01-23 01:14:00,2.6,-5.5,30.09,SSW,203,0.0,0.0,68,0.00,,,0.00,WUHU21623XXSP,2013-01-23 06:14:00,
2013-01-23 02:14:00,2.1,-5.4,30.09,SW,225,0.0,0.0,70,0.00,,,0.00,WUHU21623XXSP,2013-01-23 07:14:00,
2013-01-23 03:14:00,2.8,-4.1,30.09,SSW,203,4.0,4.0,72,0.00,,,0.00,WUHU21623XXSP,2013-01-23 08:14:00,
2013-01-23 04:14:00,3.3,-3.7,30.08,SSW,203,1.6,1.6,72,0.00,,,0.00,WUHU21623XXSP,2013-01-23 09:14:00,
2013-01-23 05:14:00,1.9,-4.7,30.07,SSW,203,0.0,0.0,73,0.00,,,0.00,WUHU21623XXSP,2013-01-23 10:14:00,
2013-01-23 06:14:00,1.3,-5.0,30.06,SSW,203,0.0,0.0,74,0.00,,,0.00,WUHU21623XXSP,2013-01-23 11:14:00,
2013-01-23 07:14:00,0.8,-5.2,30.06,SSW,203,0.0,0.0,75,0.00,,,0.00,WUHU21623XXSP,2013-01-23 12:14:00,
2013-01-23 08:14:00,1.3,-4.5,30.04,SSW,203,0.0,0.0,76,0.00,,,0.00,WUHU21623XXSP,2013-01-23 13:14:00,
2013-01-23 09:14:00,4.9,-1.3,30.04,WSW,248,0.0,0.0,75,0.00,,,0.00,WUHU21623XXSP,2013-01-23 14:14:00,
2013-01-23 10:14:00,8.5,1.7,30.03,SSW,203,0.0,0.0,73,0.00,,,0.00,WUHU21623XXSP,2013-01-23 15:14:00,
2013-01-23 11:16:00,11.4,3.6,30.02,South,180,0.0,0.0,70,0.00,,,0.00,WUHU21623XXSP,2013-01-23 16:16:00,
2013-01-23 11:24:00,12.1,4.2,30.02,SSW,202,1.8,7.6,70,0.00,,,0.00,WUHU21623XXSP,2013-01-23 16:24:00,
2013-01-23 11:29:00,12.1,4.2,30.02,SSE,157,2.5,2.5,70,0.00,,,0.00,WUHU21623XXSP,2013-01-23 16:29:00,
2013-01-23 11:34:00,12.3,4.1,30.02,South,180,0.0,2.5,69,0.00,,,0.00,WUHU21623XXSP,2013-01-23 16:34:00,
2013-01-23 11:39:00,12.5,4.3,30.02,SSW,202,0.0,0.0,69,0.00,,,0.00,WUHU21623XXSP,2013-01-23 16:39:00,
2013-01-23 11:45:00,12.7,4.2,30.01,SSW,202,0.0,0.0,68,0.00,,,0.00,WUHU21623XXSP,2013-01-23 16:45:00,
2013-01-23 11:51:00,13.6,5.0,30.01,SSW,202,13.6,13.6,68,0.00,,,0.00,WUHU21623XXSP,2013-01-23 16:51:00,
2013-01-23 11:56:00,14.1,5.5,30.01,South,180,0.0,13.6,68,0.00,,,0.00,WUHU21623XXSP,2013-01-23 16:56:00,
2013-01-23 12:01:00,14.5,5.6,30.00,South,180,3.6,3.6,67,0.00,,,0.00,WUHU21623XXSP,2013-01-23 17:01:00,
2013-01-23 12:06:00,14.5,5.6,30.00,SSW,202,1.8,3.6,67,0.00,,,0.00,WUHU21623XXSP,2013-01-23 17:06:00,
2013-01-23 12:11:00,14.5,5.6,30.00,SSW,202,1.8,1.8,67,0.00,,,0.00,WUHU21623XXSP,2013-01-23 17:11:00,
2013-01-23 12:16:00,14.1,4.9,30.00,SSW,202,6.7,6.7,66,0.00,,,0.00,WUHU21623XXSP,2013-01-23 17:16:00,
2013-01-23 12:22:00,14.7,5.4,29.99,SSE,157,7.4,7.4,66,0.00,,,0.00,WUHU21623XXSP,2013-01-23 17:22:00,
2013-01-23 12:27:00,15.0,5.7,29.99,South,180,7.2,7.4,66,0.00,,,0.00,WUHU21623XXSP,2013-01-23 17:27:00,
2013-01-23 12:32:00,15.4,6.1,29.98,South,180,7.2,7.2,66,0.00,,,0.00,WUHU21623XXSP,2013-01-23 17:32:00,
2013-01-23 12:36:00,16.3,7.0,29.97,SSE,157,7.6,7.6,66,0.00,,,0.00,WUHU21623XXSP,2013-01-23 17:36:00,
2013-01-23 12:42:00,17.0,7.3,29.97,SSE,157,7.6,7.6,65,0.00,,,0.00,WUHU21623XXSP,2013-01-23 17:42:00,
2013-01-23 12:47:00,17.2,7.2,29.97,SSW,202,9.2,9.2,64,0.00,,,0.00,WUHU21623XXSP,2013-01-23 17:47:00,
2013-01-23 12:54:00,17.2,7.2,29.97,South,180,3.6,9.2,64,0.00,,,0.00,WUHU21623XXSP,2013-01-23 17:54:00,
2013-01-23 12:59:00,17.2,7.2,29.96,SSW,202,11.4,11.4,64,0.00,,,0.00,WUHU21623XXSP,2013-01-23 17:59:00,
2013-01-23 13:04:00,17.2,7.2,29.96,SW,225,3.4,11.4,64,0.00,,,0.00,WUHU21623XXSP,2013-01-23 18:04:00,
2013-01-23 13:09:00,17.2,7.2,29.96,SSW,202,2.5,3.4,64,0.00,,,0.00,WUHU21623XXSP,2013-01-23 18:09:00,
2013-01-23 13:14:00,17.2,7.2,29.95,South,180,1.6,2.5,64,0.00,,,0.00,WUHU21623XXSP,2013-01-23 18:14:00,
2013-01-23 13:19:00,17.0,7.0,29.95,SSW,202,4.9,4.9,64,0.00,,,0.00,WUHU21623XXSP,2013-01-23 18:19:00,
2013-01-23 13:24:00,16.8,6.8,29.95,SSW,202,5.6,5.6,64,0.00,,,0.00,WUHU21623XXSP,2013-01-23 18:24:00,
2013-01-23 13:32:00,16.8,7.1,29.95,SSW,202,1.6,5.6,65,0.00,,,0.00,WUHU21623XXSP,2013-01-23 18:32:00,
2013-01-23 13:39:00,17.2,7.8,29.95,NW,315,7.8,7.8,66,0.00,,,0.00,WUHU21623XXSP,2013-01-23 18:39:00,
2013-01-23 13:44:00,17.2,7.8,29.94,WSW,247,0.0,7.8,66,0.00,,,0.00,WUHU21623XXSP,2013-01-23 18:44:00,
2013-01-23 13:49:00,17.4,8.0,29.94,South,180,4.7,4.7,66,0.00,,,0.00,WUHU21623XXSP,2013-01-23 18:49:00,
2013-01-23 13:54:00,17.4,8.0,29.94,South,180,4.9,6.0,66,0.00,,,0.00,WUHU21623XXSP,2013-01-23 18:54:00,
2013-01-23 13:58:00,17.2,7.8,29.93,SSW,202,1.8,6.0,66,0.00,,,0.00,WUHU21623XXSP,2013-01-23 18:58:00,
2013-01-23 14:03:00,17.2,7.8,29.93,SSW,202,1.8,1.8,66,0.00,,,0.00,WUHU21623XXSP,2013-01-23 19:03:00,
2013-01-23 14:08:00,16.8,7.5,29.92,South,180,7.6,7.6,66,0.00,,,0.00,WUHU21623XXSP,2013-01-23 19:08:00,
2013-01-23 14:13:00,17.0,7.6,29.92,SSW,202,2.7,7.6,66,0.00,,,0.00,WUHU21623XXSP,2013-01-23 19:13:00,
2013-01-23 14:18:00,16.8,7.5,29.92,WSW,247,2.0,2.7,66,0.00,,,0.00,WUHU21623XXSP,2013-01-23 19:18:00,
2013-01-23 14:24:00,16.8,7.5,29.92,SSW,202,5.1,5.1,66,0.00,,,0.00,WUHU21623XXSP,2013-01-23 19:24:00,
2013-01-23 14:29:00,16.8,7.8,29.92,South,180,9.8,9.8,67,0.00,,,0.00,WUHU21623XXSP,2013-01-23 19:29:00,
2013-01-23 14:34:00,17.0,8.0,29.92,SW,225,0.0,9.8,67,0.00,,,0.00,WUHU21623XXSP,2013-01-23 19:34:00,
2013-01-23 14:39:00,16.8,7.8,29.92,South,180,3.1,6.5,67,0.00,,,0.00,WUHU21623XXSP,2013-01-23 19:39:00,
2013-01-23 14:44:00,16.8,8.1,29.92,SSW,202,6.0,6.0,68,0.00,,,0.00,WUHU21623XXSP,2013-01-23 19:44:00,
2013-01-23 14:49:00,16.8,8.1,29.92,SSW,202,1.3,6.0,68,0.00,,,0.00,WUHU21623XXSP,2013-01-23 19:49:00,
2013-01-23 14:54:00,16.8,8.4,29.92,WSW,247,0.0,1.3,69,0.00,,,0.00,WUHU21623XXSP,2013-01-23 19:54:00,
2013-01-23 14:59:00,16.8,8.4,29.92,West,270,0.0,0.0,69,0.00,,,0.00,WUHU21623XXSP,2013-01-23 19:59:00,
2013-01-23 15:06:00,16.8,8.8,29.91,SSW,202,0.0,5.1,70,0.00,,,0.00,WUHU21623XXSP,2013-01-23 20:06:00,
2013-01-23 15:11:00,16.8,8.8,29.91,WSW,247,0.0,0.0,70,0.00,,,0.00,WUHU21623XXSP,2013-01-23 20:11:00,
2013-01-23 15:16:00,16.6,8.6,29.91,SSW,202,4.9,4.9,70,0.00,,,0.00,WUHU21623XXSP,2013-01-23 20:16:00,
2013-01-23 15:23:00,16.8,8.8,29.91,West,270,0.0,0.0,70,0.00,,,0.00,WUHU21623XXSP,2013-01-23 20:23:00,
2013-01-23 15:30:00,16.8,8.8,29.91,WSW,247,0.0,0.0,70,0.00,,,0.00,WUHU21623XXSP,2013-01-23 20:30:00,
2013-01-23 15:35:00,16.6,8.9,29.91,South,180,0.0,0.0,71,0.00,,,0.00,WUHU21623XXSP,2013-01-23 20:35:00,
2013-01-23 15:41:00,16.6,8.9,29.91,SW,225,0.0,0.0,71,0.00,,,0.00,WUHU21623XXSP,2013-01-23 20:41:00,
2013-01-23 15:46:00,16.8,9.1,29.91,SW,225,0.0,0.0,71,0.00,,,0.00,WUHU21623XXSP,2013-01-23 20:46:00,
2013-01-23 15:51:00,16.6,8.9,29.91,West,270,0.0,0.0,71,0.00,,,0.00,WUHU21623XXSP,2013-01-23 20:51:00,
2013-01-23 15:56:00,16.5,9.1,29.90,SSW,202,3.8,3.8,72,0.00,,,0.00,WUHU21623XXSP,2013-01-23 20:56:00,
2013-01-23 16:01:00,16.3,8.9,29.90,SSW,202,0.0,3.8,72,0.00,,,0.00,WUHU21623XXSP,2013-01-23 21:01:00,
2013-01-23 16:06:00,16.3,8.9,29.90,South,180,3.4,3.4,72,0.00,,,0.00,WUHU21623XXSP,2013-01-23 21:06:00,
2013-01-23 16:11:00,16.3,8.9,29.90,SSW,202,0.0,3.4,72,0.00,,,0.00,WUHU21623XXSP,2013-01-23 21:11:00,
2013-01-23 16:17:00,16.3,9.2,29.90,South,180,0.0,0.0,73,0.00,,,0.00,WUHU21623XXSP,2013-01-23 21:17:00,
2013-01-23 16:22:00,16.3,9.2,29.90,SSW,202,0.0,0.0,73,0.00,,,0.00,WUHU21623XXSP,2013-01-23 21:22:00,
2013-01-23 16:27:00,16.3,9.2,29.90,SSW,202,1.6,1.6,73,0.00,,,0.00,WUHU21623XXSP,2013-01-23 21:27:00,
2013-01-23 16:32:00,16.3,9.2,29.90,SW,225,0.0,1.6,73,0.00,,,0.00,WUHU21623XXSP,2013-01-23 21:32:00,
2013-01-23 16:37:00,15.9,8.8,29.90,SSW,202,0.0,0.0,73,0.00,,,0.00,WUHU21623XXSP,2013-01-23 21:37:00,
2013-01-23 16:42:00,15.7,8.6,29.90,SSW,202,0.0,0.0,73,0.00,,,0.00,WUHU21623XXSP,2013-01-23 21:42:00,
2013-01-23 16:47:00,15.6,8.5,29.90,South,180,3.6,3.6,73,0.00,,,0.00,WUHU21623XXSP,2013-01-23 21:47:00,
2013-01-23 16:52:00,15.4,8.6,29.90,SSW,202,0.0,3.6,74,0.00,,,0.00,WUHU21623XXSP,2013-01-23 21:52:00,
2013-01-23 16:57:00,15.2,8.4,29.89,WSW,247,0.0,0.0,74,0.00,,,0.00,WUHU21623XXSP,2013-01-23 21:57:00,
2013-01-23 17:04:00,15.0,8.2,29.90,South,180,0.0,0.0,74,0.00,,,0.00,WUHU21623XXSP,2013-01-23 22:04:00,
2013-01-23 17:09:00,15.0,8.2,29.89,South,180,0.0,0.0,74,0.00,,,0.00,WUHU21623XXSP,2013-01-23 22:09:00,
2013-01-23 17:14:00,14.8,8.0,29.90,South,180,0.0,0.0,74,0.00,,,0.00,WUHU21623XXSP,2013-01-23 22:14:00,
2013-01-23 17:19:00,14.8,8.0,29.90,South,180,0.0,0.0,74,0.00,,,0.00,WUHU21623XXSP,2013-01-23 22:19:00,
2013-01-23 17:24:00,14.8,8.0,29.89,South,180,0.0,0.0,74,0.00,,,0.00,WUHU21623XXSP,2013-01-23 22:24:00,
2013-01-23 17:30:00,14.8,8.0,29.90,South,180,0.0,0.0,74,0.00,,,0.00,WUHU21623XXSP,2013-01-23 22:30:00,
2013-01-23 17:35:00,14.8,8.0,29.91,South,180,0.0,0.0,74,0.00,,,0.00,WUHU21623XXSP,2013-01-23 22:35:00,
2013-01-23 17:40:00,14.8,8.0,29.91,WSW,247,0.0,0.0,74,0.00,,,0.00,WUHU21623XXSP,2013-01-23 22:40:00,
2013-01-23 17:45:00,14.8,8.0,29.90,West,270,0.0,0.0,74,0.00,,,0.00,WUHU21623XXSP,2013-01-23 22:45:00,
2013-01-23 17:50:00,14.8,8.0,29.90,SSW,202,0.0,0.0,74,0.00,,,0.00,WUHU21623XXSP,2013-01-23 22:50:00,
2013-01-23 17:55:00,14.7,7.9,29.91,SSW,202,0.0,0.0,74,0.00,,,0.00,WUHU21623XXSP,2013-01-23 22:55:00,
2013-01-23 18:00:00,14.8,8.3,29.90,WSW,247,0.0,0.0,75,0.00,,,0.00,WUHU21623XXSP,2013-01-23 23:00:00,
2013-01-23 18:06:00,14.8,8.3,29.90,WSW,247,0.0,0.0,75,0.00,,,0.00,WUHU21623XXSP,2013-01-23 23:06:00,
2013-01-23 18:11:00,14.8,8.3,29.90,WSW,247,0.0,0.0,75,0.00,,,0.00,WUHU21623XXSP,2013-01-23 23:11:00,
2013-01-23 18:16:00,14.8,8.3,29.90,SW,225,0.0,0.0,75,0.00,,,0.00,WUHU21623XXSP,2013-01-23 23:16:00,
2013-01-23 18:21:00,14.8,8.3,29.90,SW,225,0.0,0.0,75,0.00,,,0.00,WUHU21623XXSP,2013-01-23 23:21:00,
2013-01-23 18:26:00,14.8,8.3,29.90,SW,225,0.0,0.0,75,0.00,,,0.00,WUHU21623XXSP,2013-01-23 23:26:00,
2013-01-23 18:31:00,14.8,8.3,29.90,SW,225,0.0,0.0,75,0.00,,,0.00,WUHU21623XXSP,2013-01-23 23:31:00,
2013-01-23 18:36:00,14.8,8.3,29.90,SW,225,0.0,0.0,75,0.00,,,0.00,WUHU21623XXSP,2013-01-23 23:36:00,
2013-01-23 18:41:00,14.8,8.3,29.90,SW,225,0.0,0.0,75,0.00,,,0.00,WUHU21623XXSP,2013-01-23 23:41:00,
2013-01-23 18:46:00,14.8,8.6,29.90,SW,225,0.0,0.0,76,0.00,,,0.00,WUHU21623XXSP,2013-01-23 23:46:00,
2013-01-23 18:51:00,14.8,8.6,29.91,SW,225,0.0,0.0,76,0.00,,,0.00,WUHU21623XXSP,2013-01-23 23:51:00,
2013-01-23 18:56:00,14.8,8.6,29.90,SW,225,0.0,0.0,76,0.00,,,0.00,WUHU21623XXSP,2013-01-23 23:56:00,
2013-01-23 19:01:00,14.8,8.9,29.90,SW,225,0.0,0.0,77,0.00,,,0.00,WUHU21623XXSP,2013-01-24 00:01:00,
2013-01-23 19:06:00,14.8,8.9,29.90,SW,225,0.0,0.0,77,0.00,,,0.00,WUHU21623XXSP,2013-01-24 00:06:00,
2013-01-23 19:11:00,14.8,8.9,29.89,SW,225,0.0,0.0,77,0.00,,,0.00,WUHU21623XXSP,2013-01-24 00:11:00,
2013-01-23 19:21:00,14.8,8.9,29.90,SW,225,0.0,0.0,77,0.00,,,0.00,WUHU21623XXSP,2013-01-24 00:21:00,
2013-01-23 19:28:00,14.8,8.9,29.90,SW,225,0.0,0.0,77,0.00,,,0.00,WUHU21623XXSP,2013-01-24 00:28:00,
2013-01-23 19:36:00,14.8,8.9,29.90,SW,225,0.0,0.0,77,0.00,,,0.00,WUHU21623XXSP,2013-01-24 00:36:00,
2013-01-23 19:58:00,14.8,8.9,29.91,SW,225,0.0,0.0,77,0.00,,,0.00,WUHU21623XXSP,2013-01-24 00:58:00,
2013-01-23 20:03:00,14.8,8.9,29.91,SW,225,0.0,0.0,77,0.00,,,0.00,WUHU21623XXSP,2013-01-24 01:03:00,
2013-01-23 20:08:00,14.8,8.9,29.91,SW,225,0.0,0.0,77,0.00,,,0.00,WUHU21623XXSP,2013-01-24 01:08:00,
2013-01-23 20:13:00,14.7,9.1,29.90,SW,225,0.0,0.0,78,0.00,,,0.00,WUHU21623XXSP,2013-01-24 01:13:00,
2013-01-23 20:18:00,14.7,9.1,29.90,SW,225,0.0,0.0,78,0.00,,,0.00,WUHU21623XXSP,2013-01-24 01:18:00,
2013-01-23 20:23:00,14.7,9.1,29.90,SW,225,0.0,0.0,78,0.00,,,0.00,WUHU21623XXSP,2013-01-24 01:23:00,
2013-01-23 20:36:00,14.7,9.1,29.91,SW,225,0.0,0.0,78,0.00,,,0.00,WUHU21623XXSP,2013-01-24 01:36:00,
2013-01-23 20:41:00,14.7,9.1,29.91,West,270,0.0,0.0,78,0.00,,,0.00,WUHU21623XXSP,2013-01-24 01:41:00,
2013-01-23 20:46:00,14.5,8.9,29.91,West,270,0.0,0.0,78,0.00,,,0.00,WUHU21623XXSP,2013-01-24 01:46:00,
2013-01-23 20:51:00,14.3,8.7,29.91,West,270,0.0,0.0,78,0.00,,,0.00,WUHU21623XXSP,2013-01-24 01:51:00,
2013-01-23 20:56:00,14.3,8.7,29.91,West,270,0.0,0.0,78,0.00,,,0.00,WUHU21623XXSP,2013-01-24 01:56:00,
2013-01-23 21:01:00,14.1,8.5,29.91,West,270,0.0,0.0,78,0.00,,,0.00,WUHU21623XXSP,2013-01-24 02:01:00,
2013-01-23 21:06:00,14.1,8.5,29.92,West,270,0.0,0.0,78,0.00,,,0.00,WUHU21623XXSP,2013-01-24 02:06:00,
2013-01-23 21:11:00,14.3,8.7,29.92,West,270,0.0,0.0,78,0.00,,,0.00,WUHU21623XXSP,2013-01-24 02:11:00,
2013-01-23 21:16:00,14.1,8.5,29.92,WNW,292,0.0,0.0,78,0.00,,,0.00,WUHU21623XXSP,2013-01-24 02:16:00,
2013-01-23 21:27:00,14.1,8.5,29.91,WNW,292,0.0,0.0,78,0.00,,,0.00,WUHU21623XXSP,2013-01-24 02:27:00,
2013-01-23 21:32:00,14.1,8.5,29.92,WNW,292,0.0,0.0,78,0.00,,,0.00,WUHU21623XXSP,2013-01-24 02:32:00,
2013-01-23 21:37:00,14.1,8.5,29.92,WNW,292,0.0,0.0,78,0.00,,,0.00,WUHU21623XXSP,2013-01-24 02:37:00,
2013-01-23 21:42:00,13.9,8.6,29.93,WNW,292,0.0,0.0,79,0.00,,,0.00,WUHU21623XXSP,2013-01-24 02:42:00,
2013-01-23 21:47:00,13.9,8.6,29.93,WNW,292,0.0,0.0,79,0.00,,,0.00,WUHU21623XXSP,2013-01-24 02:47:00,
2013-01-23 21:55:00,14.1,8.8,29.93,NNW,337,0.0,0.0,79,0.00,,,0.00,WUHU21623XXSP,2013-01-24 02:55:00,
2013-01-23 22:02:00,14.1,8.8,29.93,NNW,337,0.0,0.0,79,0.00,,,0.00,WUHU21623XXSP,2013-01-24 03:02:00,
2013-01-23 22:40:00,13.2,7.9,29.95,NNW,337,0.0,0.0,79,0.00,,,0.00,WUHU21623XXSP,2013-01-24 03:40:00,
2013-01-23 22:45:00,13.0,7.7,29.95,NNW,337,0.0,0.0,79,0.00,,,0.00,WUHU21623XXSP,2013-01-24 03:45:00,
2013-01-23 22:50:00,13.0,7.7,29.95,NNW,337,0.0,0.0,79,0.00,,,0.00,WUHU21623XXSP,2013-01-24 03:50:00,
2013-01-23 22:55:00,12.9,7.3,29.95,NNW,337,0.0,0.0,78,0.00,,,0.00,WUHU21623XXSP,2013-01-24 03:55:00,
2013-01-23 23:00:00,12.7,7.1,29.95,NNW,337,0.0,0.0,78,0.00,,,0.00,WUHU21623XXSP,2013-01-24 04:00:00,
2013-01-23 23:05:00,12.7,7.1,29.95,NNW,337,0.0,0.0,78,0.00,,,0.00,WUHU21623XXSP,2013-01-24 04:05:00,
2013-01-23 23:10:00,12.3,6.8,29.96,NNW,337,0.0,0.0,78,0.00,,,0.00,WUHU21623XXSP,2013-01-24 04:10:00,
2013-01-23 23:15:00,12.3,6.8,29.96,NNW,337,0.0,0.0,78,0.00,,,0.00,WUHU21623XXSP,2013-01-24 04:15:00,
2013-01-23 23:20:00,12.3,6.8,29.96,NNW,337,0.0,0.0,78,0.00,,,0.00,WUHU21623XXSP,2013-01-24 04:20:00,
2013-01-23 23:25:00,12.1,6.6,29.97,NNW,337,0.0,0.0,78,0.00,,,0.00,WUHU21623XXSP,2013-01-24 04:25:00,
2013-01-23 23:30:00,12.1,6.6,29.96,NNW,337,0.0,0.0,78,0.00,,,0.00,WUHU21623XXSP,2013-01-24 04:30:00,
2013-01-23 23:36:00,11.8,6.3,29.97,NNW,337,0.0,0.0,78,0.00,,,0.00,WUHU21623XXSP,2013-01-24 04:36:00,
2013-01-23 23:41:00,11.8,6.5,29.97,NNW,337,0.0,0.0,79,0.00,,,0.00,WUHU21623XXSP,2013-01-24 04:41:00,
2013-01-23 23:46:00,11.8,6.5,29.97,NNW,337,0.0,0.0,79,0.00,,,0.00,WUHU21623XXSP,2013-01-24 04:46:00,
2013-01-23 23:51:00,11.6,6.4,29.97,NNW,337,0.0,0.0,79,0.00,,,0.00,WUHU21623XXSP,2013-01-24 04:51:00,
2013-01-23 23:56:00,11.2,6.0,29.98,NNW,337,0.0,0.0,79,0.00,,,0.00,WUHU21623XXSP,2013-01-24 04:56:00,
2013-01-23 23:57:00,11.2,6.0,29.98,NNW,337,0.0,0.0,79,0.00,,,0.00,WUHU21623XXSP,2013-01-24 04:57:00,